"read_dt","SO2 (ppb)","flags","PMT voltage (V)","lamp voltage (V)","lamp intensity (Hz)","internal temp (C)","react chamber temp (C)","sample flow (l/min)","pres (mmHg)","SO2 bkg (ppb)","SO2 coefficient"
2015-11-15 00:00:00,1684E-3,5C000400,-0724,0828,12071,024.2,045.3,0.263,768.3,01.15,0.508
2015-11-15 00:01:00,1748E-3,5C000400,-0724,0827,12286,024.1,045.3,0.263,768.2,01.15,0.508
2015-11-15 00:02:00,1836E-3,5C000400,-0724,0828,12233,024.2,045.3,0.263,768.2,01.15,0.508
2015-11-15 00:03:00,1892E-3,5C000400,-0724,0829,12221,024.1,045.3,0.263,768.3,01.15,0.508
2015-11-15 00:04:00,1787E-3,5C000400,-0724,0828,12100,024.2,045.3,0.263,768.2,01.15,0.508
2015-11-15 00:05:00,1817E-3,5C000400,-0724,0829,12218,024.2,045.3,0.263,768.1,01.15,0.508
2015-11-15 00:06:00,1756E-3,5C000400,-0724,0829,12185,024.2,045.3,0.263,768.2,01.15,0.508
2015-11-15 00:07:00,1799E-3,5C000400,-0724,0829,12219,024.1,045.3,0.264,768.2,01.15,0.508
2015-11-15 00:08:00,1676E-3,5C000400,-0724,0829,12197,024.2,045.3,0.264,768.2,01.15,0.508
2015-11-15 00:09:00,1753E-3,5C000400,-0724,0829,12143,024.2,045.3,0.263,768.3,01.15,0.508
2015-11-15 00:10:00,1662E-3,5C000400,-0724,0829,12221,024.2,045.3,0.263,768.3,01.15,0.508
2015-11-15 00:11:00,1694E-3,5C000400,-0724,0829,12174,024.2,045.3,0.263,768.3,01.15,0.508
2015-11-15 00:12:00,1918E-3,5C000400,-0724,0828,12233,024.1,045.3,0.263,768.3,01.15,0.508
2015-11-15 00:13:00,1806E-3,5C000400,-0724,0829,12129,024.1,045.3,0.263,768.4,01.15,0.508
2015-11-15 00:14:00,1731E-3,5C000400,-0724,0829,12159,024.1,045.3,0.263,768.3,01.15,0.508
2015-11-15 00:15:00,1723E-3,5C000400,-0724,0829,12221,024.2,045.3,0.263,768.4,01.15,0.508
2015-11-15 00:16:00,1738E-3,5C000400,-0724,0829,12282,024.2,045.3,0.263,768.4,01.15,0.508
2015-11-15 00:17:00,1580E-3,5C000400,-0724,0829,12284,024.2,045.3,0.263,768.4,01.15,0.508
2015-11-15 00:18:00,1857E-3,5C000400,-0724,0829,12229,024.1,045.3,0.263,768.5,01.15,0.508
2015-11-15 00:19:00,1713E-3,5C000400,-0724,0830,12220,024.1,045.3,0.263,768.4,01.15,0.508
2015-11-15 00:20:00,1748E-3,5C000400,-0724,0830,12239,024.1,045.3,0.263,768.4,01.15,0.508
2015-11-15 00:21:00,1716E-3,5C000400,-0724,0828,12100,024.1,045.3,0.263,768.4,01.15,0.508
2015-11-15 00:22:00,1792E-3,5C000400,-0724,0829,11880,024.1,045.3,0.263,768.4,01.15,0.508
2015-11-15 00:23:00,1644E-3,5C000400,-0724,0829,12297,024.1,045.3,0.263,768.4,01.15,0.508
2015-11-15 00:24:00,1853E-3,5C000400,-0724,0829,12150,024.2,045.3,0.263,768.4,01.15,0.508
2015-11-15 00:25:00,1797E-3,5C000400,-0724,0830,12237,024.1,045.3,0.264,768.3,01.15,0.508
2015-11-15 00:26:00,1725E-3,5C000400,-0724,0828,12186,024.1,045.3,0.263,768.4,01.15,0.508
2015-11-15 00:27:00,1707E-3,5C000400,-0724,0829,12159,024.2,045.3,0.263,768.4,01.15,0.508
2015-11-15 00:28:00,1761E-3,5C000400,-0724,0829,12185,024.1,045.3,0.263,768.4,01.15,0.508
2015-11-15 00:29:00,1780E-3,5C000400,-0724,0829,12267,024.1,045.3,0.263,768.3,01.15,0.508
2015-11-15 00:30:00,1689E-3,5C000400,-0724,0828,12257,024.1,045.3,0.263,768.4,01.15,0.508
2015-11-15 00:31:00,1700E-3,5C000400,-0724,0828,12109,024.1,045.3,0.263,768.4,01.15,0.508
2015-11-15 00:32:00,1840E-3,5C000400,-0724,0829,12211,024.1,045.3,0.263,768.4,01.15,0.508
2015-11-15 00:33:00,1821E-3,5C000400,-0724,0829,12260,024.1,045.3,0.263,768.4,01.15,0.508
2015-11-15 00:34:00,1626E-3,5C000400,-0724,0828,12272,024.1,045.3,0.263,768.4,01.15,0.508
2015-11-15 00:35:00,1685E-3,5C000400,-0724,0828,12210,024.2,045.3,0.263,768.3,01.15,0.508
2015-11-15 00:36:00,1706E-3,5C000400,-0724,0830,12270,024.2,045.3,0.263,768.3,01.15,0.508
2015-11-15 00:37:00,1826E-3,5C000400,-0724,0828,12234,024.2,045.3,0.263,768.4,01.15,0.508
2015-11-15 00:38:00,1720E-3,5C000400,-0724,0829,12313,024.2,045.3,0.263,768.4,01.15,0.508
2015-11-15 00:39:00,1737E-3,5C000400,-0724,0828,12231,024.1,045.3,0.263,768.5,01.15,0.508
2015-11-15 00:40:00,1689E-3,5C000400,-0724,0828,12202,024.1,045.3,0.263,768.5,01.15,0.508
2015-11-15 00:41:00,1859E-3,5C000400,-0724,0829,12196,024.1,045.3,0.263,768.5,01.15,0.508
2015-11-15 00:42:00,1694E-3,5C000400,-0724,0829,12309,024.1,045.3,0.263,768.5,01.15,0.508
2015-11-15 00:43:00,1845E-3,5C000400,-0724,0829,12199,024.1,045.3,0.263,768.5,01.15,0.508
2015-11-15 00:44:00,1677E-3,5C000400,-0724,0828,12054,024.1,045.3,0.263,768.5,01.15,0.508
2015-11-15 00:45:00,1751E-3,5C000400,-0724,0828,12329,024.1,045.3,0.263,768.5,01.15,0.508
2015-11-15 00:46:00,1692E-3,5C000400,-0724,0829,12245,024.1,045.3,0.263,768.6,01.15,0.508
2015-11-15 00:47:00,1767E-3,5C000400,-0724,0828,12307,024.1,045.3,0.263,768.5,01.15,0.508
2015-11-15 00:48:00,1627E-3,5C000400,-0724,0828,12122,024.1,045.3,0.263,768.6,01.15,0.508
2015-11-15 00:49:00,1657E-3,5C000400,-0724,0828,12164,024.1,045.3,0.263,768.5,01.15,0.508
2015-11-15 00:50:00,1852E-3,5C000400,-0724,0829,12171,024.1,045.3,0.263,768.5,01.15,0.508
2015-11-15 00:51:00,1847E-3,5C000400,-0724,0829,12305,024.1,045.3,0.263,768.5,01.15,0.508
2015-11-15 00:52:00,1847E-3,5C000400,-0724,0829,12194,024.1,045.3,0.263,768.4,01.15,0.508
2015-11-15 00:53:00,1829E-3,5C000400,-0724,0829,12113,024.1,045.3,0.263,768.5,01.15,0.508
2015-11-15 00:54:00,1604E-3,5C000400,-0724,0829,12233,024.2,045.3,0.263,768.4,01.15,0.508
2015-11-15 00:55:00,1712E-3,5C000400,-0724,0828,12267,024.1,045.3,0.263,768.5,01.15,0.508
2015-11-15 00:56:00,1806E-3,5C000400,-0724,0829,12062,024.1,045.3,0.264,768.5,01.15,0.508
2015-11-15 00:57:00,1770E-3,5C000400,-0724,0829,12041,024.2,045.3,0.263,768.5,01.15,0.508
2015-11-15 00:58:00,1780E-3,5C000400,-0724,0829,12244,024.1,045.3,0.263,768.5,01.15,0.508
2015-11-15 00:59:00,1676E-3,5C000400,-0724,0829,12157,024.1,045.3,0.263,768.5,01.15,0.508
2015-11-15 01:00:00,1592E-3,5C000400,-0724,0828,12216,024.1,045.3,0.263,768.6,01.15,0.508
2015-11-15 01:01:00,1696E-3,5C000400,-0724,0828,12190,024.1,045.3,0.263,768.6,01.15,0.508
2015-11-15 01:02:00,1600E-3,5C000400,-0724,0829,12151,024.1,045.3,0.263,768.7,01.15,0.508
2015-11-15 01:03:00,1724E-3,5C000400,-0724,0829,12278,024.1,045.3,0.263,768.5,01.15,0.508
2015-11-15 01:04:00,1715E-3,5C000400,-0724,0829,12227,024.1,045.3,0.263,768.5,01.15,0.508
2015-11-15 01:05:00,1746E-3,5C000400,-0724,0829,12128,024.1,045.3,0.264,768.5,01.15,0.508
2015-11-15 01:06:00,1776E-3,5C000400,-0724,0829,12284,024.1,045.3,0.264,768.6,01.15,0.508
2015-11-15 01:07:00,1695E-3,5C000400,-0724,0828,12174,024.1,045.3,0.263,768.5,01.15,0.508
2015-11-15 01:08:00,1769E-3,5C000400,-0724,0828,12194,024.1,045.3,0.263,768.6,01.15,0.508
2015-11-15 01:09:00,1794E-3,5C000400,-0724,0829,12201,024.1,045.3,0.263,768.6,01.15,0.508
2015-11-15 01:10:00,1818E-3,5C000400,-0724,0829,12159,024.1,045.3,0.263,768.6,01.15,0.508
2015-11-15 01:11:00,1849E-3,5C000400,-0724,0829,12147,024.1,045.3,0.264,768.7,01.15,0.508
2015-11-15 01:12:00,1620E-3,5C000400,-0724,0829,12175,024.1,045.3,0.263,768.7,01.15,0.508
2015-11-15 01:13:00,1756E-3,5C000400,-0724,0828,12207,024.1,045.3,0.263,768.6,01.15,0.508
2015-11-15 01:14:00,1805E-3,5C000400,-0724,0828,12294,024.1,045.3,0.263,768.6,01.15,0.508
2015-11-15 01:15:00,1678E-3,5C000400,-0724,0828,12184,024.1,045.3,0.263,768.6,01.15,0.508
2015-11-15 01:16:00,1754E-3,5C000400,-0724,0829,12268,024.1,045.3,0.263,768.6,01.15,0.508
2015-11-15 01:17:00,1644E-3,5C000400,-0724,0829,12159,024.1,045.3,0.263,768.5,01.15,0.508
2015-11-15 01:18:00,1865E-3,5C000400,-0724,0829,12303,024.1,045.3,0.263,768.5,01.15,0.508
2015-11-15 01:19:00,1680E-3,5C000400,-0724,0829,12185,024.1,045.3,0.264,768.5,01.15,0.508
2015-11-15 01:20:00,1748E-3,5C000400,-0724,0829,12154,024.1,045.3,0.263,768.5,01.15,0.508
2015-11-15 01:21:00,1903E-3,5C000400,-0724,0829,12216,024.1,045.3,0.263,768.5,01.15,0.508
2015-11-15 01:22:00,1628E-3,5C000400,-0724,0829,12222,024.1,045.3,0.263,768.6,01.15,0.508
2015-11-15 01:23:00,1821E-3,5C000400,-0724,0829,12227,024.1,045.3,0.263,768.6,01.15,0.508
2015-11-15 01:24:00,1781E-3,5C000400,-0724,0829,12241,024.1,045.3,0.263,768.6,01.15,0.508
2015-11-15 01:25:00,1690E-3,5C000400,-0724,0829,12258,024.1,045.3,0.263,768.6,01.15,0.508
2015-11-15 01:26:00,1835E-3,5C000400,-0724,0829,12288,024.1,045.3,0.263,768.6,01.15,0.508
2015-11-15 01:27:00,1737E-3,5C000400,-0724,0829,12304,024.1,045.3,0.264,768.6,01.15,0.508
2015-11-15 01:28:00,1694E-3,5C000400,-0724,0831,12345,024.1,045.3,0.263,768.6,01.15,0.508
2015-11-15 01:29:00,1871E-3,5C000400,-0724,0829,12250,024.1,045.3,0.263,768.5,01.15,0.508
2015-11-15 01:30:00,1613E-3,5C000400,-0724,0829,12234,024.1,045.3,0.263,768.5,01.15,0.508
2015-11-15 01:31:00,1924E-3,5C000400,-0724,0829,12203,024.1,045.3,0.263,768.5,01.15,0.508
2015-11-15 01:32:00,1729E-3,5C000400,-0724,0828,12279,024.1,045.3,0.263,768.5,01.15,0.508
2015-11-15 01:33:00,1796E-3,5C000400,-0724,0829,12256,024.1,045.3,0.263,768.5,01.15,0.508
2015-11-15 01:34:00,1636E-3,5C000400,-0724,0829,12215,024.1,045.3,0.263,768.5,01.15,0.508
2015-11-15 01:35:00,1770E-3,5C000400,-0724,0829,12374,024.1,045.3,0.264,768.5,01.15,0.508
2015-11-15 01:36:00,1798E-3,5C000400,-0724,0829,12096,024.1,045.3,0.263,768.6,01.15,0.508
2015-11-15 01:37:00,1897E-3,5C000400,-0724,0829,12079,024.1,045.3,0.263,768.6,01.15,0.508
2015-11-15 01:38:00,1906E-3,5C000400,-0724,0828,12144,024.1,045.3,0.263,768.6,01.15,0.508
2015-11-15 01:39:00,1719E-3,5C000400,-0724,0828,12089,024.1,045.3,0.263,768.6,01.15,0.508
2015-11-15 01:40:00,1702E-3,5C000400,-0724,0828,12298,024.1,045.3,0.263,768.6,01.15,0.508
2015-11-15 01:41:00,1765E-3,5C000400,-0724,0828,12161,024.1,045.3,0.263,768.7,01.15,0.508
2015-11-15 01:42:00,1786E-3,5C000400,-0724,0830,12189,024.1,045.3,0.263,768.6,01.15,0.508
2015-11-15 01:43:00,1752E-3,5C000400,-0724,0829,11214,024.1,045.3,0.264,768.6,01.15,0.508
2015-11-15 01:44:00,1715E-3,5C000400,-0724,0829,12230,024.1,045.3,0.263,768.6,01.15,0.508
2015-11-15 01:45:00,1627E-3,5C000400,-0724,0829,11988,024.1,045.3,0.263,768.6,01.15,0.508
2015-11-15 01:46:00,1791E-3,5C000400,-0724,0831,11040,024.1,045.3,0.263,768.7,01.15,0.508
2015-11-15 01:47:00,1618E-3,5C000400,-0724,0829,12387,024.1,045.3,0.263,768.7,01.15,0.508
2015-11-15 01:48:00,1838E-3,5C000400,-0724,0830,12239,024.0,045.3,0.263,768.7,01.15,0.508
2015-11-15 01:49:00,1731E-3,5C000400,-0724,0829,12347,024.1,045.3,0.263,768.7,01.15,0.508
2015-11-15 01:50:00,1759E-3,5C000400,-0724,0829,12206,024.0,045.3,0.263,768.6,01.15,0.508
2015-11-15 01:51:00,1673E-3,5C000400,-0724,0830,12261,024.1,045.3,0.264,768.6,01.15,0.508
2015-11-15 01:52:00,1782E-3,5C000400,-0724,0829,12247,024.1,045.3,0.263,768.6,01.15,0.508
2015-11-15 01:53:00,1754E-3,5C000400,-0724,0830,12212,024.1,045.3,0.263,768.6,01.15,0.508
2015-11-15 01:54:00,1756E-3,5C000400,-0724,0830,12233,024.1,045.3,0.263,768.7,01.15,0.508
2015-11-15 01:55:00,1662E-3,5C000400,-0724,0829,12211,024.1,045.3,0.263,768.7,01.15,0.508
2015-11-15 01:56:00,1759E-3,5C000400,-0724,0829,12257,024.1,045.3,0.263,768.7,01.15,0.508
2015-11-15 01:57:00,1846E-3,5C000400,-0724,0829,12180,024.1,045.3,0.263,768.7,01.15,0.508
2015-11-15 01:58:00,1735E-3,5C000400,-0724,0829,12250,024.1,045.3,0.263,768.7,01.15,0.508
2015-11-15 01:59:00,1637E-3,5C000400,-0724,0829,12111,024.0,045.3,0.264,768.7,01.15,0.508
2015-11-15 02:00:00,1661E-3,5C000400,-0724,0833,12487,024.1,045.3,0.264,768.7,01.15,0.508
2015-11-15 02:01:00,1662E-3,5C000400,-0724,0831,12419,024.0,045.3,0.263,768.7,01.15,0.508
2015-11-15 02:02:00,1593E-3,5C000400,-0724,0834,12433,024.1,045.3,0.263,768.7,01.15,0.508
2015-11-15 02:03:00,1562E-3,5C000400,-0724,0835,11236,024.0,045.3,0.263,768.8,01.15,0.508
2015-11-15 02:04:00,1670E-3,5C000400,-0724,0828,12184,024.1,045.3,0.263,768.6,01.15,0.508
2015-11-15 02:05:00,1729E-3,5C000400,-0724,0828,12101,024.0,045.3,0.264,768.6,01.15,0.508
2015-11-15 02:06:00,1769E-3,5C000400,-0724,0829,12202,024.0,045.3,0.264,768.6,01.15,0.508
2015-11-15 02:07:00,1860E-3,5C000400,-0724,0828,12070,024.0,045.3,0.264,768.6,01.15,0.508
2015-11-15 02:08:00,1599E-3,5C000400,-0724,0830,12379,024.0,045.3,0.264,768.6,01.15,0.508
2015-11-15 02:09:00,1706E-3,5C000400,-0724,0829,12214,024.0,045.3,0.263,768.6,01.15,0.508
2015-11-15 02:10:00,1724E-3,5C000400,-0724,0829,12320,024.0,045.3,0.263,768.7,01.15,0.508
2015-11-15 02:11:00,1728E-3,5C000400,-0724,0829,11170,024.0,045.3,0.263,768.6,01.15,0.508
2015-11-15 02:12:00,1604E-3,5C000400,-0724,0829,12116,024.1,045.3,0.263,768.7,01.15,0.508
2015-11-15 02:13:00,1714E-3,5C000400,-0724,0830,12488,024.0,045.3,0.264,768.7,01.15,0.508
2015-11-15 02:14:00,1642E-3,5C000400,-0724,0830,12451,024.1,045.3,0.264,768.7,01.15,0.508
2015-11-15 02:15:00,1644E-3,5C000400,-0724,0832,12335,024.0,045.3,0.263,768.7,01.15,0.508
2015-11-15 02:16:00,1606E-3,5C000400,-0724,0831,11212,024.0,045.3,0.263,768.7,01.15,0.508
2015-11-15 02:17:00,1746E-3,5C000400,-0724,0830,12397,024.0,045.3,0.263,768.7,01.15,0.508
2015-11-15 02:18:00,1753E-3,5C000400,-0724,0829,12316,024.0,045.3,0.263,768.7,01.15,0.508
2015-11-15 02:19:00,1694E-3,5C000400,-0724,0833,12438,024.0,045.3,0.263,768.7,01.15,0.508
2015-11-15 02:20:00,1764E-3,5C000400,-0724,0828,12264,024.0,045.3,0.263,768.7,01.15,0.508
2015-11-15 02:21:00,1650E-3,5C000400,-0724,0828,8669,024.0,045.3,0.264,768.7,01.15,0.508
2015-11-15 02:22:00,1758E-3,5C000400,-0724,0827,12291,024.0,045.3,0.264,768.7,01.15,0.508
2015-11-15 02:23:00,1684E-3,5C000400,-0724,0827,12709,024.0,045.3,0.263,768.8,01.15,0.508
2015-11-15 02:24:00,1626E-3,5C000400,-0724,0832,12388,024.0,045.3,0.263,768.8,01.15,0.508
2015-11-15 02:25:00,1694E-3,5C000400,-0724,0832,12395,024.0,045.3,0.263,768.8,01.15,0.508
2015-11-15 02:26:00,1650E-3,5C000400,-0724,0830,11149,024.0,045.3,0.263,768.7,01.15,0.508
2015-11-15 02:27:00,1725E-3,5C000400,-0724,0830,12279,024.0,045.3,0.263,768.8,01.15,0.508
2015-11-15 02:28:00,1667E-3,5C000400,-0724,0829,12210,024.0,045.3,0.263,768.8,01.15,0.508
2015-11-15 02:29:00,1642E-3,5C000400,-0724,0831,10971,024.0,045.3,0.264,768.8,01.15,0.508
2015-11-15 02:30:00,1744E-3,5C000400,-0724,0829,12153,024.0,045.3,0.264,768.8,01.15,0.508
2015-11-15 02:31:00,1648E-3,5C000400,-0724,0831,12206,024.0,045.3,0.264,768.9,01.15,0.508
2015-11-15 02:32:00,1875E-3,5C000400,-0724,0830,12424,024.0,045.3,0.263,768.8,01.15,0.508
2015-11-15 02:33:00,1751E-3,5C000400,-0724,0829,12287,024.0,045.3,0.263,768.8,01.15,0.508
2015-11-15 02:34:00,1634E-3,5C000400,-0724,0830,12360,024.0,045.3,0.263,768.8,01.15,0.508
2015-11-15 02:35:00,1618E-3,5C000400,-0724,0829,11071,024.0,045.3,0.263,768.9,01.15,0.508
2015-11-15 02:36:00,1680E-3,5C000400,-0724,0830,12395,024.0,045.4,0.263,768.9,01.15,0.508
2015-11-15 02:37:00,1645E-3,5C000400,-0724,0833,12342,024.0,045.4,0.264,768.9,01.15,0.508
2015-11-15 02:38:00,1717E-3,5C000400,-0724,0829,12290,024.0,045.3,0.264,768.9,01.15,0.508
2015-11-15 02:39:00,1776E-3,5C000400,-0724,0832,12360,024.0,045.3,0.264,768.8,01.15,0.508
2015-11-15 02:40:00,1734E-3,5C000400,-0724,0832,12261,024.0,045.4,0.264,768.8,01.15,0.508
2015-11-15 02:41:00,1715E-3,5C000400,-0724,0829,12309,024.0,045.3,0.263,768.7,01.15,0.508
2015-11-15 02:42:00,1650E-3,5C000400,-0724,0829,12284,024.0,045.3,0.263,768.7,01.15,0.508
2015-11-15 02:43:00,1901E-3,5C000400,-0724,0828,11075,024.0,045.3,0.263,768.7,01.15,0.508
2015-11-15 02:44:00,1704E-3,5C000400,-0724,0833,12239,024.0,045.3,0.263,768.7,01.15,0.508
2015-11-15 02:45:00,1667E-3,5C000400,-0724,0829,12272,024.0,045.3,0.263,768.7,01.15,0.508
2015-11-15 02:46:00,1631E-3,5C000400,-0724,0829,12279,024.0,045.3,0.263,768.8,01.15,0.508
2015-11-15 02:47:00,1847E-3,5C000400,-0724,0829,12304,024.0,045.3,0.264,768.8,01.15,0.508
2015-11-15 02:48:00,1761E-3,5C000400,-0724,0830,11099,024.0,045.3,0.264,768.7,01.15,0.508
2015-11-15 02:49:00,1748E-3,5C000400,-0724,0830,12226,024.0,045.3,0.264,768.8,01.15,0.508
2015-11-15 02:50:00,1743E-3,5C000400,-0724,0828,11081,024.0,045.3,0.263,768.8,01.15,0.508
2015-11-15 02:51:00,1821E-3,5C000400,-0724,0829,12298,024.0,045.3,0.263,768.8,01.15,0.508
2015-11-15 02:52:00,1634E-3,5C000400,-0724,0829,12223,024.0,045.3,0.263,768.8,01.15,0.508
2015-11-15 02:53:00,1695E-3,5C000400,-0724,0829,11242,024.0,045.3,0.263,768.8,01.15,0.508
2015-11-15 02:54:00,1800E-3,5C000400,-0724,0831,12223,024.0,045.3,0.263,768.7,01.15,0.508
2015-11-15 02:55:00,1835E-3,5C000400,-0724,0829,12362,024.0,045.3,0.263,768.7,01.15,0.508
2015-11-15 02:56:00,1829E-3,5C000400,-0724,0829,12302,024.0,045.3,0.264,768.7,01.15,0.508
2015-11-15 02:57:00,1827E-3,5C000400,-0724,0828,12290,024.0,045.3,0.264,768.7,01.15,0.508
2015-11-15 02:58:00,1852E-3,5C000400,-0724,0831,12474,024.0,045.3,0.264,768.7,01.15,0.508
2015-11-15 02:59:00,1718E-3,5C000400,-0724,0829,12303,024.0,045.3,0.264,768.7,01.15,0.508
2015-11-15 03:00:00,1686E-3,5C000400,-0724,0828,12261,024.0,045.3,0.263,768.7,01.15,0.508
2015-11-15 03:01:00,1814E-3,5C000400,-0724,0827,12097,024.0,045.3,0.263,768.7,01.15,0.508
2015-11-15 03:02:00,1694E-3,5C000400,-0724,0830,12265,024.0,045.3,0.263,768.8,01.15,0.508
2015-11-15 03:03:00,1490E-3,5C000400,-0724,0829,12324,024.0,045.3,0.263,768.6,01.15,0.508
2015-11-15 03:04:00,1852E-3,5C000400,-0724,0829,12361,024.0,045.3,0.263,768.6,01.15,0.508
2015-11-15 03:05:00,1665E-3,5C000400,-0724,0826,12299,024.0,045.3,0.264,768.6,01.15,0.508
2015-11-15 03:06:00,1819E-3,5C000400,-0724,0829,11079,024.0,045.3,0.264,768.6,01.15,0.508
2015-11-15 03:07:00,1698E-3,5C000400,-0724,0828,12111,024.0,045.3,0.264,768.7,01.15,0.508
2015-11-15 03:08:00,1751E-3,5C000400,-0724,0830,12447,024.0,045.3,0.263,768.6,01.15,0.508
2015-11-15 03:09:00,1797E-3,5C000400,-0724,0831,12158,024.0,045.3,0.263,768.7,01.15,0.508
2015-11-15 03:10:00,1592E-3,5C000400,-0724,0830,12274,024.0,045.3,0.263,768.7,01.15,0.508
2015-11-15 03:11:00,1768E-3,5C000400,-0724,0825,12230,024.0,045.3,0.263,768.7,01.15,0.508
2015-11-15 03:12:00,1639E-3,5C000400,-0724,0828,11118,024.0,045.3,0.264,768.7,01.15,0.508
2015-11-15 03:13:00,1711E-3,5C000400,-0724,0829,12277,024.0,045.3,0.264,768.6,01.15,0.508
2015-11-15 03:14:00,1561E-3,5C000400,-0724,0829,12194,024.0,045.3,0.264,768.7,01.15,0.508
2015-11-15 03:15:00,1609E-3,5C000400,-0724,0829,12321,024.0,045.3,0.264,768.7,01.15,0.508
2015-11-15 03:16:00,1739E-3,5C000400,-0724,0829,10973,024.0,045.3,0.263,768.7,01.15,0.508
2015-11-15 03:17:00,1675E-3,5C000400,-0724,0830,12267,024.0,045.3,0.263,768.8,01.15,0.508
2015-11-15 03:18:00,1848E-3,5C000400,-0724,0828,12190,024.0,045.3,0.263,768.8,01.15,0.508
2015-11-15 03:19:00,1726E-3,5C000400,-0724,0827,12281,024.0,045.3,0.263,768.8,01.15,0.508
2015-11-15 03:20:00,1618E-3,5C000400,-0724,0829,12207,024.0,045.4,0.263,768.7,01.15,0.508
2015-11-15 03:21:00,1802E-3,5C000400,-0724,0829,12205,024.0,045.3,0.263,768.8,01.15,0.508
2015-11-15 03:22:00,1774E-3,5C000400,-0724,0829,12074,024.0,045.3,0.264,768.8,01.15,0.508
2015-11-15 03:23:00,1818E-3,5C000400,-0724,0829,11073,024.0,045.3,0.264,768.7,01.15,0.508
2015-11-15 03:24:00,1802E-3,5C000400,-0724,0828,12174,024.0,045.3,0.264,768.8,01.15,0.508
2015-11-15 03:25:00,1777E-3,5C000400,-0724,0829,12205,024.0,045.3,0.263,768.8,01.15,0.508
2015-11-15 03:26:00,1862E-3,5C000400,-0724,0830,12292,024.0,045.3,0.263,768.8,01.15,0.508
2015-11-15 03:27:00,1846E-3,5C000400,-0724,0829,12274,024.0,045.3,0.263,768.8,01.15,0.508
2015-11-15 03:28:00,1741E-3,5C000400,-0724,0829,12349,024.0,045.3,0.263,768.8,01.15,0.508
2015-11-15 03:29:00,1784E-3,5C000400,-0724,0828,12207,024.0,045.3,0.263,768.9,01.15,0.508
2015-11-15 03:30:00,1883E-3,5C000400,-0724,0828,12134,024.0,045.3,0.263,768.8,01.15,0.508
2015-11-15 03:31:00,1725E-3,5C000400,-0724,0830,12246,024.0,045.3,0.264,768.8,01.15,0.508
2015-11-15 03:32:00,1708E-3,5C000400,-0724,0829,12233,024.0,045.3,0.264,768.8,01.15,0.508
2015-11-15 03:33:00,1679E-3,5C000400,-0724,0830,12247,024.0,045.3,0.264,768.9,01.15,0.508
2015-11-15 03:34:00,1706E-3,5C000400,-0724,0828,12356,024.0,045.3,0.264,768.8,01.15,0.508
2015-11-15 03:35:00,1675E-3,5C000400,-0724,0831,12372,024.0,045.3,0.263,768.7,01.15,0.508
2015-11-15 03:36:00,1683E-3,5C000400,-0724,0828,11299,024.0,045.3,0.263,768.8,01.15,0.508
2015-11-15 03:37:00,1781E-3,5C000400,-0724,0827,12251,024.0,045.3,0.263,768.8,01.15,0.508
2015-11-15 03:38:00,1655E-3,5C000400,-0724,0827,12222,024.0,045.3,0.263,768.7,01.15,0.508
2015-11-15 03:39:00,1706E-3,5C000400,-0724,0828,11926,024.0,045.3,0.263,768.8,01.15,0.508
2015-11-15 03:40:00,1731E-3,5C000400,-0724,0829,12196,024.0,045.4,0.264,768.7,01.15,0.508
2015-11-15 03:41:00,1802E-3,5C000400,-0724,0829,12228,024.0,045.3,0.264,768.7,01.15,0.508
2015-11-15 03:42:00,1809E-3,5C000400,-0724,0828,12266,024.0,045.3,0.264,768.7,01.15,0.508
2015-11-15 03:43:00,1803E-3,5C000400,-0724,0829,12253,024.0,045.3,0.264,768.6,01.15,0.508
2015-11-15 03:44:00,1703E-3,5C000400,-0724,0829,12332,024.0,045.3,0.263,768.6,01.15,0.508
2015-11-15 03:45:00,1826E-3,5C000400,-0724,0829,12281,024.0,045.3,0.263,768.6,01.15,0.508
2015-11-15 03:46:00,1819E-3,5C000400,-0724,0829,12203,024.0,045.3,0.263,768.5,01.15,0.508
2015-11-15 03:47:00,1736E-3,5C000400,-0724,0829,12249,024.0,045.3,0.263,768.6,01.15,0.508
2015-11-15 03:48:00,1804E-3,5C000400,-0724,0829,12361,024.0,045.3,0.264,768.6,01.15,0.508
2015-11-15 03:49:00,1680E-3,5C000400,-0724,0829,12110,024.0,045.3,0.264,768.5,01.15,0.508
2015-11-15 03:50:00,1710E-3,5C000400,-0724,0829,12296,024.0,045.3,0.264,768.6,01.15,0.508
2015-11-15 03:51:00,1713E-3,5C000400,-0724,0828,12075,024.0,045.3,0.263,768.5,01.15,0.508
2015-11-15 03:52:00,1758E-3,5C000400,-0724,0829,12086,024.0,045.3,0.263,768.5,01.15,0.508
2015-11-15 03:53:00,1627E-3,5C000400,-0724,0829,12324,024.0,045.3,0.264,768.6,01.15,0.508
2015-11-15 03:54:00,1707E-3,5C000400,-0724,0829,12259,024.0,045.3,0.263,768.6,01.15,0.508
2015-11-15 03:55:00,1638E-3,5C000400,-0724,0829,12151,024.1,045.3,0.263,768.6,01.15,0.508
2015-11-15 03:56:00,1782E-3,5C000400,-0724,0830,12257,024.0,045.3,0.263,768.6,01.15,0.508
2015-11-15 03:57:00,1762E-3,5C000400,-0724,0828,12096,024.0,045.3,0.263,768.6,01.15,0.508
2015-11-15 03:58:00,1725E-3,5C000400,-0724,0828,12262,024.0,045.3,0.263,768.7,01.15,0.508
2015-11-15 03:59:00,1814E-3,5C000400,-0724,0828,12268,024.0,045.3,0.263,768.7,01.15,0.508
2015-11-15 04:00:00,1707E-3,5C000400,-0724,0829,12123,024.0,045.3,0.264,768.6,01.15,0.508
2015-11-15 04:01:00,1707E-3,5C000400,-0724,0829,11913,024.0,045.3,0.264,768.7,01.15,0.508
2015-11-15 04:02:00,1800E-3,5C000400,-0724,0829,12135,024.0,045.4,0.264,768.6,01.15,0.508
2015-11-15 04:03:00,1712E-3,5C000400,-0724,0829,12219,024.0,045.3,0.263,768.6,01.15,0.508
2015-11-15 04:04:00,1781E-3,5C000400,-0724,0829,12253,024.0,045.3,0.263,768.6,01.15,0.508
2015-11-15 04:05:00,1786E-3,5C000400,-0724,0828,12222,024.0,045.3,0.264,768.6,01.15,0.508
2015-11-15 04:06:00,1673E-3,5C000400,-0724,0829,12264,024.0,045.3,0.264,768.5,01.15,0.508
2015-11-15 04:07:00,1632E-3,5C000400,-0724,0829,12236,024.0,045.3,0.264,768.5,01.15,0.508
2015-11-15 04:08:00,1767E-3,5C000400,-0724,0829,12285,024.0,045.3,0.263,768.6,01.15,0.508
2015-11-15 04:09:00,1714E-3,5C000400,-0724,0828,12290,024.0,045.3,0.263,768.6,01.15,0.508
2015-11-15 04:10:00,1780E-3,5C000400,-0724,0829,12185,024.0,045.3,0.263,768.8,01.15,0.508
2015-11-15 04:11:00,1809E-3,5C000400,-0724,0829,12180,024.0,045.3,0.263,768.7,01.15,0.508
2015-11-15 04:12:00,1785E-3,5C000400,-0724,0829,12270,024.0,045.3,0.263,768.7,01.15,0.508
2015-11-15 04:13:00,1683E-3,5C000400,-0724,0829,12114,024.0,045.3,0.263,768.7,01.15,0.508
2015-11-15 04:14:00,1684E-3,5C000400,-0724,0829,12129,024.0,045.3,0.264,768.7,01.15,0.508
2015-11-15 04:15:00,1836E-3,5C000400,-0724,0830,12086,024.0,045.3,0.264,768.7,01.15,0.508
2015-11-15 04:16:00,1822E-3,5C000400,-0724,0829,12111,024.0,045.3,0.264,768.6,01.15,0.508
2015-11-15 04:17:00,1868E-3,5C000400,-0724,0829,12195,024.0,045.3,0.263,768.7,01.15,0.508
2015-11-15 04:18:00,1722E-3,5C000400,-0724,0828,12296,024.0,045.3,0.263,768.8,01.15,0.508
2015-11-15 04:19:00,1798E-3,5C000400,-0724,0829,12065,024.0,045.3,0.263,768.7,01.15,0.508
2015-11-15 04:20:00,1638E-3,5C000400,-0724,0828,12163,024.0,045.3,0.263,768.7,01.15,0.508